CMP380 MPDA-MPTO

Flight info

Callsign CMP380
Flight time 0h 36m
Altitude 27000
Route DAV UA502 TBG
Aircraft B738/M-SDE2E3FGHIRWXY/LB1

Departure

Time 2026-05-06 00:17
Airport Enrique Malek International Airport (MPDA)

Arrival

Time 2026-05-06 00:53
Airport Tocumen International Airport (MPTO)
Time Latitude Longitude Altitude Speed Heading
2026-05-06 00:07 8.39202 -82.43176 65 ft 0 kts 62°
2026-05-06 00:10 8.39211 -82.43179 68 ft 4 kts 353°
2026-05-06 00:10 8.39234 -82.43177 71 ft 1 kts 184°
2026-05-06 00:10 8.39237 -82.43177 71 ft 1 kts 184°
2026-05-06 00:14 8.39225 -82.43179 68 ft 7 kts 199°
2026-05-06 00:14 8.39147 -82.43259 68 ft 22 kts 243°
2026-05-06 00:14 8.39190 -82.43395 63 ft 21 kts 311°
2026-05-06 00:15 8.39300 -82.43364 68 ft 20 kts 44°
2026-05-06 00:15 8.39483 -82.43211 68 ft 51 kts 39°
2026-05-06 00:15 8.39756 -82.42989 85 ft 26 kts 32°
2026-05-06 00:15 8.39838 -82.42951 88 ft 9 kts 52°
2026-05-06 00:16 8.39810 -82.42915 86 ft 8 kts 197°
2026-05-06 00:16 8.39782 -82.42966 86 ft 8 kts 231°
2026-05-06 00:16 8.39767 -82.42980 85 ft 1 kts 218°
2026-05-06 00:16 8.39753 -82.42990 87 ft 11 kts 218°
2026-05-06 00:17 8.39413 -82.43258 73 ft 111 kts 217°
2026-05-06 00:17 8.38604 -82.43926 182 ft 184 kts 217°
2026-05-06 00:17 8.37561 -82.44760 1115 ft 184 kts 219°
2026-05-06 00:17 8.36602 -82.45508 2622 ft 174 kts 217°
2026-05-06 00:18 8.35591 -82.46300 3243 ft 199 kts 217°
2026-05-06 00:18 8.34211 -82.46815 3487 ft 229 kts 178°
2026-05-06 00:18 8.32681 -82.46249 3713 ft 249 kts 139°
2026-05-06 00:18 8.31770 -82.44747 4134 ft 255 kts 97°
2026-05-06 00:19 8.31973 -82.43023 4929 ft 253 kts 64°
2026-05-06 00:19 8.33160 -82.41695 5476 ft 265 kts 28°
2026-05-06 00:19 8.34955 -82.41327 6388 ft 269 kts 354°
2026-05-06 00:19 8.36790 -82.41798 7274 ft 274 kts 348°
2026-05-06 00:20 8.38687 -82.41839 8042 ft 278 kts 18°
2026-05-06 00:20 8.40417 -82.40963 8915 ft 281 kts 28°
2026-05-06 00:20 8.42277 -82.40294 9712 ft 290 kts
2026-05-06 00:20 8.44321 -82.40208 10330 ft 287 kts 23°
2026-05-06 00:21 8.46047 -82.39219 11218 ft 291 kts 42°
2026-05-06 00:21 8.47259 -82.37503 11441 ft 316 kts 68°
2026-05-06 00:21 8.47805 -82.35273 11659 ft 340 kts 80°
2026-05-06 00:21 8.48128 -82.32825 11813 ft 363 kts 83°
2026-05-06 00:22 8.48398 -82.30229 12071 ft 379 kts 84°
2026-05-06 00:22 8.48659 -82.27557 12611 ft 384 kts 84°
2026-05-06 00:22 8.48927 -82.24865 13275 ft 386 kts 83°
2026-05-06 00:22 8.49208 -82.22159 13906 ft 389 kts 83°
2026-05-06 00:23 8.49498 -82.19470 14442 ft 392 kts 83°
2026-05-06 00:23 8.49801 -82.16727 14969 ft 395 kts 83°
2026-05-06 00:23 8.50112 -82.13966 15502 ft 397 kts 83°
2026-05-06 00:23 8.50428 -82.11183 16023 ft 400 kts 83°
2026-05-06 00:24 8.50748 -82.08382 16583 ft 402 kts 83°
2026-05-06 00:24 8.51070 -82.05564 17075 ft 406 kts 83°
2026-05-06 00:24 8.51396 -82.02721 17566 ft 409 kts 83°
2026-05-06 00:24 8.51723 -81.99862 18052 ft 411 kts 83°
2026-05-06 00:25 8.52053 -81.96980 18486 ft 414 kts 83°
2026-05-06 00:25 8.52384 -81.94079 18892 ft 417 kts 83°
2026-05-06 00:25 8.52718 -81.91156 19261 ft 420 kts 83°
2026-05-06 00:25 8.53054 -81.88219 19655 ft 423 kts 83°
2026-05-06 00:26 8.53392 -81.85251 20030 ft 425 kts 83°
2026-05-06 00:26 8.53731 -81.82281 20387 ft 428 kts 83°
2026-05-06 00:26 8.54072 -81.79280 20762 ft 431 kts 83°
2026-05-06 00:26 8.54415 -81.76264 21121 ft 433 kts 83°
2026-05-06 00:27 8.54760 -81.73234 21469 ft 436 kts 83°
2026-05-06 00:27 8.55106 -81.70184 21793 ft 438 kts 83°
2026-05-06 00:27 8.55455 -81.67116 22134 ft 441 kts 83°
2026-05-06 00:27 8.55804 -81.64033 22449 ft 443 kts 83°
2026-05-06 00:28 8.56156 -81.60929 22757 ft 446 kts 83°
2026-05-06 00:28 8.56510 -81.57810 23077 ft 448 kts 83°
2026-05-06 00:28 8.56865 -81.54669 23368 ft 450 kts 83°
2026-05-06 00:28 8.57222 -81.51517 23633 ft 453 kts 83°
2026-05-06 00:29 8.57576 -81.48387 23880 ft 454 kts 83°
2026-05-06 00:29 8.57938 -81.45176 24192 ft 454 kts 83°
2026-05-06 00:29 8.58292 -81.42044 24530 ft 454 kts 83°
2026-05-06 00:29 8.58648 -81.38884 24820 ft 454 kts 83°
2026-05-06 00:30 8.59007 -81.35701 24944 ft 457 kts 83°
2026-05-06 00:30 8.59368 -81.32492 24948 ft 461 kts 83°
2026-05-06 00:30 8.59733 -81.29257 24956 ft 465 kts 83°
2026-05-06 00:30 8.60099 -81.25996 24953 ft 468 kts 83°
2026-05-06 00:31 8.60468 -81.22715 24962 ft 471 kts 83°
2026-05-06 00:31 8.60839 -81.19415 24948 ft 474 kts 83°
2026-05-06 00:31 8.61212 -81.16088 24950 ft 476 kts 83°
2026-05-06 00:31 8.61585 -81.12755 24954 ft 478 kts 83°
2026-05-06 00:32 8.61959 -81.09415 24945 ft 480 kts 83°
2026-05-06 00:32 8.62335 -81.06059 24943 ft 481 kts 83°
2026-05-06 00:32 8.62711 -81.02699 24944 ft 482 kts 83°
2026-05-06 00:32 8.63087 -80.99331 24942 ft 483 kts 83°
2026-05-06 00:33 8.63338 -80.97089 24942 ft 484 kts 83°
2026-05-06 00:33 8.63339 -80.97079 24940 ft 484 kts 83°
2026-05-06 00:34 8.63502 -80.95617 24944 ft 484 kts 83°
2026-05-06 00:34 8.63879 -80.92237 24947 ft 484 kts 83°
2026-05-06 00:34 8.64256 -80.88848 24938 ft 485 kts 83°
2026-05-06 00:34 8.64634 -80.85457 24938 ft 486 kts 83°
2026-05-06 00:35 8.65012 -80.82062 24933 ft 486 kts 83°
2026-05-06 00:35 8.65390 -80.78666 24932 ft 486 kts 83°
2026-05-06 00:35 8.65767 -80.75270 24930 ft 487 kts 83°
2026-05-06 00:35 8.66144 -80.71874 24912 ft 482 kts 83°
2026-05-06 00:36 8.66513 -80.68538 24260 ft 474 kts 83°
2026-05-06 00:36 8.66877 -80.65253 23574 ft 468 kts 83°
2026-05-06 00:36 8.67237 -80.62003 22719 ft 464 kts 83°
2026-05-06 00:36 8.67594 -80.58782 21942 ft 458 kts 83°
2026-05-06 00:37 8.67946 -80.55601 21183 ft 452 kts 83°
2026-05-06 00:37 8.68293 -80.52458 20462 ft 447 kts 83°
2026-05-06 00:37 8.68636 -80.49352 19713 ft 443 kts 83°
2026-05-06 00:37 8.68976 -80.46277 18984 ft 439 kts 84°
2026-05-06 00:38 8.69308 -80.43263 18273 ft 435 kts 84°
2026-05-06 00:38 8.69640 -80.40249 17539 ft 429 kts 84°
2026-05-06 00:38 8.69969 -80.37256 16738 ft 426 kts 83°
2026-05-06 00:38 8.70293 -80.34309 16030 ft 420 kts 83°
2026-05-06 00:39 8.70614 -80.31390 15319 ft 416 kts 83°
2026-05-06 00:39 8.70932 -80.28489 14606 ft 412 kts 83°
2026-05-06 00:39 8.71247 -80.25617 13907 ft 408 kts 83°
2026-05-06 00:39 8.71558 -80.22782 13188 ft 404 kts 83°
2026-05-06 00:40 8.71866 -80.19975 12515 ft 399 kts 83°
2026-05-06 00:40 8.72169 -80.17200 11800 ft 396 kts 83°
2026-05-06 00:40 8.72471 -80.14444 11178 ft 391 kts 83°
2026-05-06 00:40 8.72762 -80.11782 11043 ft 373 kts 83°
2026-05-06 00:41 8.73041 -80.09226 10871 ft 358 kts 83°
2026-05-06 00:41 8.73306 -80.06800 10726 ft 345 kts 83°
2026-05-06 00:41 8.73564 -80.04434 10573 ft 333 kts 83°
2026-05-06 00:41 8.73814 -80.02149 10498 ft 320 kts 83°
2026-05-06 00:42 8.74054 -79.99948 10396 ft 309 kts 83°
2026-05-06 00:42 8.74285 -79.97821 10275 ft 300 kts 83°
2026-05-06 00:42 8.74510 -79.95757 10151 ft 291 kts 83°
2026-05-06 00:42 8.74729 -79.93750 10048 ft 284 kts 82°
2026-05-06 00:43 8.74947 -79.91753 9797 ft 292 kts 82°
2026-05-06 00:43 8.75185 -79.89590 9495 ft 330 kts 83°
2026-05-06 00:43 8.75452 -79.87156 9117 ft 365 kts 82°
2026-05-06 00:43 8.75735 -79.84559 8698 ft 372 kts 82°
2026-05-06 00:44 8.76016 -79.81951 8303 ft 373 kts 83°
2026-05-06 00:44 8.76298 -79.79346 7897 ft 371 kts 83°
2026-05-06 00:44 8.76578 -79.76759 7505 ft 369 kts 83°
2026-05-06 00:44 8.76857 -79.74180 7107 ft 368 kts 83°
2026-05-06 00:45 8.77134 -79.71617 6724 ft 367 kts 83°
2026-05-06 00:45 8.77412 -79.69052 6331 ft 366 kts 82°
2026-05-06 00:45 8.77687 -79.66502 5908 ft 365 kts 82°
2026-05-06 00:45 8.77963 -79.63955 5515 ft 363 kts 82°
2026-05-06 00:46 8.78237 -79.61421 5134 ft 362 kts 82°
2026-05-06 00:46 8.78509 -79.58901 4757 ft 360 kts 82°
2026-05-06 00:46 8.78881 -79.56414 4360 ft 357 kts 72°
2026-05-06 00:46 8.80106 -79.54280 3994 ft 350 kts 44°
2026-05-06 00:47 8.82063 -79.53017 3811 ft 321 kts 24°
2026-05-06 00:47 8.83973 -79.52073 3819 ft 283 kts 30°
2026-05-06 00:47 8.85496 -79.51107 3854 ft 239 kts 34°
2026-05-06 00:47 8.86755 -79.50183 3781 ft 205 kts 36°
2026-05-06 00:48 8.87792 -79.49377 3789 ft 177 kts 37°
2026-05-06 00:48 8.88706 -79.48656 3705 ft 156 kts 36°
2026-05-06 00:48 8.89538 -79.47997 3365 ft 151 kts 36°
2026-05-06 00:48 8.90381 -79.47423 3089 ft 143 kts 27°
2026-05-06 00:49 8.91248 -79.46941 2942 ft 144 kts 27°
2026-05-06 00:49 8.92141 -79.46436 2736 ft 148 kts 28°
2026-05-06 00:49 8.93021 -79.45939 2545 ft 146 kts 28°
2026-05-06 00:49 8.93918 -79.45431 2362 ft 146 kts 27°
2026-05-06 00:50 8.94797 -79.44932 2180 ft 148 kts 28°
2026-05-06 00:50 8.95704 -79.44417 1975 ft 149 kts 28°
2026-05-06 00:50 8.96603 -79.43905 1792 ft 149 kts 28°
2026-05-06 00:50 8.97507 -79.43391 1613 ft 150 kts 28°
2026-05-06 00:51 8.98416 -79.42874 1423 ft 150 kts 28°
2026-05-06 00:51 8.99321 -79.42359 1220 ft 148 kts 28°
2026-05-06 00:51 9.00199 -79.41859 1020 ft 143 kts 27°
2026-05-06 00:51 9.01089 -79.41387 771 ft 147 kts 22°
2026-05-06 00:52 9.01990 -79.40894 593 ft 145 kts 30°
2026-05-06 00:52 9.02854 -79.40330 493 ft 153 kts 30°
2026-05-06 00:52 9.03807 -79.39803 291 ft 157 kts 24°
2026-05-06 00:52 9.04754 -79.39279 81 ft 154 kts 30°
2026-05-06 00:53 9.05623 -79.38783 33 ft 131 kts 27°
2026-05-06 00:53 9.06229 -79.38426 30 ft 70 kts 30°
2026-05-06 00:53 9.06422 -79.38376 28 ft 3 kts 359°
2026-05-06 00:53 9.06448 -79.38377 28 ft 13 kts 359°
2026-05-06 00:54 9.06603 -79.38380 29 ft 28 kts 350°
2026-05-06 00:54 9.06662 -79.38440 29 ft 14 kts 279°
2026-05-06 00:54 9.06592 -79.38495 29 ft 14 kts 207°
2026-05-06 00:54 9.06495 -79.38561 29 ft 8 kts 253°
2026-05-06 00:55 9.06503 -79.38609 29 ft 6 kts 284°
2026-05-06 00:55 9.06509 -79.38626 29 ft 0 kts 289°
2026-05-06 00:55 9.06510 -79.38630 29 ft 2 kts 288°
2026-05-06 00:55 9.06511 -79.38633 29 ft 0 kts 287°